Location: Laguna de la Cañada del Gallo
(40.3974°N, 5.2096°W)
Time: 02:58:22
(UTC+00:00)

Cosmos 2297 Rocket - Pass Details

Date: 18 April 2024
Orbit: 840 x 841 km, 71.0° (Epoch: 25 May)

Event Time Altitude Azimuth Distance (km) Brightness Sun altitude
Rises 22:14:54 0° 328° (NNW) 3,402 6.5 -30.8°
Reaches altitude 10° 22:17:31 10° 320° (NW) 2,463 5.5 -31.1°
Enters shadow 22:22:23 37° 261° (W) 1,291 3.2 -31.6°
